| time (UTC) | temp F | wind direction | speed MPH | gust MPH | rain 1hr in | rain 24hr in | rain mn in | humidity % | barometer mb |
| 20260508115213 | 32 | 148 | 1.0 | 3.0 | 0.00 | 0.00 | 0.00 | 80 | 1022.7 |
| 20260508114142 | 32 | 134 | 1.0 | 3.0 | 0.00 | 0.00 | 0.00 | 80 | 1022.7 |
| 20260508104112 | 33 | 141 | 1.0 | 3.0 | 0.00 | 0.00 | 0.00 | 80 | 1022.5 |
| 20260508102112 | 33 | 153 | 2.0 | 3.0 | 0.00 | 0.00 | 0.00 | 80 | 1022.6 |
| 20260508094111 | 33 | 135 | 1.0 | 4.0 | 0.00 | 0.00 | 0.00 | 80 | 1022.4 |
| 20260508093112 | 33 | 148 | 1.0 | 2.0 | 0.00 | 0.00 | 0.00 | 80 | 1022.3 |
| 20260508092046 | 33 | 136 | 0.0 | 3.0 | 0.00 | 0.00 | 0.00 | 80 | 1022.4 |
| 20260508085011 | 33 | 155 | 0.0 | 0.0 | 0.00 | 0.00 | 0.00 | 80 | 1022.4 |
| 20260508084011 | 33 | 124 | 0.0 | 0.0 | 0.00 | 0.00 | 0.00 | 80 | 1022.5 |
| 20260508083011 | 33 | 124 | 0.0 | 0.0 | 0.00 | 0.00 | 0.00 | 80 | 1022.4 |
| 20260508081011 | 34 | 147 | 0.0 | 1.0 | 0.00 | 0.00 | 0.00 | 78 | 1022.5 |
| 20260508080011 | 34 | 152 | 0.0 | 1.0 | 0.00 | 0.00 | 0.00 | 77 | 1022.5 |
| 20260508074941 | 34 | 133 | 0.0 | 1.0 | 0.00 | 0.00 | 0.00 | 77 | 1022.6 |
| 20260508071911 | 35 | 149 | 0.0 | 3.0 | 0.00 | 0.00 | 0.00 | 76 | 1022.6 |
| 20260508070911 | 36 | 150 | 0.0 | 3.0 | 0.00 | 0.00 | 0.00 | 75 | 1022.5 |
| 20260508065911 | 36 | 137 | 1.0 | 1.0 | 0.00 | 0.00 | 0.00 | 75 | 1022.5 |
| 20260508064910 | 36 | 150 | 1.0 | 3.0 | 0.00 | 0.00 | 0.00 | 75 | 1022.5 |
| 20260508063911 | 36 | 162 | 2.0 | 3.0 | 0.00 | 0.00 | 0.00 | 75 | 1022.5 |
| 20260508062911 | 36 | 128 | 0.0 | 2.0 | 0.00 | 0.00 | 0.00 | 74 | 1022.4 |
| 20260508061910 | 36 | 146 | 0.0 | 3.0 | 0.00 | 0.00 | 0.00 | 74 | 1022.3 |
| 20260508060910 | 36 | 128 | 0.0 | 2.0 | 0.00 | 0.00 | 0.00 | 74 | 1022.3 |
| 20260508055910 | 37 | 139 | 0.0 | 2.0 | 0.00 | 0.00 | 0.00 | 73 | 1022.3 |
| 20260508054840 | 37 | 150 | 0.0 | 3.0 | 0.00 | 0.00 | 0.00 | 73 | 1022.3 |
| 20260508053840 | 37 | 138 | 0.0 | 3.0 | 0.00 | 0.00 | 0.00 | 73 | 1022.3 |
| 20260508052840 | 38 | 126 | 1.0 | 2.0 | 0.00 | 0.00 | 0.00 | 72 | 1022.3 |
| 20260508051810 | 38 | 138 | 0.0 | 2.0 | 0.00 | 0.00 | 0.00 | 72 | 1022.3 |
| 20260508050740 | 38 | 129 | 1.0 | 2.0 | 0.00 | 0.00 | 0.00 | 72 | 1022.3 |
| 20260508045710 | 38 | 155 | 0.0 | 1.0 | 0.00 | 0.00 | 0.00 | 71 | 1022.3 |
| 20260508044710 | 39 | 155 | 0.0 | 2.0 | 0.00 | 0.00 | 0.00 | 71 | 1022.2 |
| 20260508043710 | 39 | 143 | 0.0 | 1.0 | 0.00 | 0.00 | 0.00 | 70 | 1022.3 |
| 20260508040712 | 40 | 150 | 0.0 | 2.0 | 0.00 | 0.00 | 0.00 | 69 | 1022.3 |
| 20260508035710 | 40 | 150 | 0.0 | 1.0 | 0.00 | 0.00 | 0.00 | 70 | 1022.2 |
| 20260508034710 | 40 | 295 | 0.0 | 0.0 | 0.00 | 0.00 | 0.00 | 68 | 1022.1 |
| 20260508033710 | 41 | 295 | 0.0 | 0.0 | 0.00 | 0.00 | 0.00 | 65 | 1022.0 |
| 20260508032710 | 43 | 295 | 0.0 | 0.0 | 0.00 | 0.00 | 0.00 | 63 | 1022.0 |
| 20260508031640 | 44 | 295 | 0.0 | 0.0 | 0.00 | 0.00 | 0.00 | 59 | 1021.9 |
| 20260508030639 | 46 | 295 | 0.0 | 0.0 | 0.00 | 0.00 | 0.00 | 57 | 1021.8 |
| 20260508025640 | 47 | 295 | 0.0 | 0.0 | 0.00 | 0.00 | 0.00 | 55 | 1021.7 |
| 20260508024639 | 48 | 295 | 0.0 | 2.0 | 0.00 | 0.00 | 0.00 | 52 | 1021.5 |
| 20260508023640 | 49 | 295 | 0.0 | 2.0 | 0.00 | 0.00 | 0.00 | 49 | 1021.3 |
| 20260508022639 | 50 | 282 | 0.0 | 0.0 | 0.00 | 0.00 | 0.00 | 48 | 1021.2 |
| 20260508021639 | 50 | 291 | 0.0 | 3.0 | 0.00 | 0.00 | 0.00 | 47 | 1021.2 |
| 20260508020639 | 51 | 269 | 1.0 | 1.0 | 0.00 | 0.00 | 0.00 | 47 | 1021.3 |
| 20260508015639 | 51 | 274 | 0.0 | 1.0 | 0.00 | 0.00 | 0.00 | 47 | 1021.4 |
| 20260508014639 | 52 | 309 | 0.0 | 2.0 | 0.00 | 0.00 | 0.00 | 48 | 1021.3 |
| 20260508013639 | 52 | 81 | 0.0 | 2.0 | 0.00 | 0.00 | 0.00 | 46 | 1021.2 |
| 20260508012639 | 52 | 172 | 0.0 | 2.0 | 0.00 | 0.00 | 0.00 | 45 | 1021.0 |
| 20260508011639 | 53 | 269 | 1.0 | 4.0 | 0.00 | 0.00 | 0.00 | 46 | 1021.2 |
| 20260508010641 | 54 | 271 | 1.0 | 4.0 | 0.00 | 0.00 | 0.00 | 44 | 1021.3 |
| 20260508003608 | 56 | 273 | 0.0 | 3.0 | 0.00 | 0.00 | 0.00 | 42 | 1021.6 |
| 20260507235438 | 53 | 293 | 0.0 | 1.0 | 0.00 | 0.00 | 0.00 | 43 | 1021.6 |
| 20260507234438 | 53 | 290 | 0.0 | 3.0 | 0.00 | 0.00 | 0.00 | 41 | 1021.6 |
| 20260507233438 | 53 | 276 | 0.0 | 3.0 | 0.00 | 0.00 | 0.00 | 40 | 1021.5 |
| 20260507231408 | 55 | 269 | 2.0 | 5.0 | 0.00 | 0.00 | 0.00 | 38 | 1021.5 |
| 20260507230408 | 57 | 219 | 2.0 | 5.0 | 0.00 | 0.00 | 0.00 | 37 | 1021.5 |
| 20260507225409 | 58 | 287 | 0.0 | 2.0 | 0.00 | 0.00 | 0.00 | 35 | 1021.4 |
| 20260507224408 | 57 | 274 | 3.0 | 5.0 | 0.00 | 0.00 | 0.00 | 35 | 1021.6 |
| 20260507222308 | 57 | 283 | 2.0 | 4.0 | 0.00 | 0.00 | 0.00 | 37 | 1021.6 |
| 20260507221238 | 56 | 274 | 3.0 | 4.0 | 0.00 | 0.00 | 0.00 | 40 | 1021.5 |
| 20260507220238 | 55 | 266 | 1.0 | 4.0 | 0.00 | 0.00 | 0.00 | 41 | 1021.7 |
| 20260507215238 | 54 | 304 | 3.0 | 6.0 | 0.00 | 0.00 | 0.00 | 42 | 1021.8 |
| 20260507214208 | 54 | 347 | 1.0 | 6.0 | 0.00 | 0.00 | 0.00 | 43 | 1021.9 |
| 20260507213208 | 54 | 300 | 3.0 | 6.0 | 0.00 | 0.00 | 0.00 | 40 | 1022.0 |
| 20260507212208 | 55 | 316 | 3.0 | 7.0 | 0.00 | 0.00 | 0.00 | 41 | 1022.1 |
| 20260507211208 | 55 | 309 | 3.0 | 7.0 | 0.00 | 0.00 | 0.00 | 44 | 1022.0 |
| 20260507210208 | 55 | 356 | 5.0 | 7.0 | 0.00 | 0.00 | 0.00 | 41 | 1022.1 |
| 20260507204138 | 55 | 259 | 1.0 | 3.0 | 0.00 | 0.00 | 0.00 | 42 | 1022.2 |
| 20260507201108 | 55 | 281 | 2.0 | 4.0 | 0.00 | 0.00 | 0.00 | 42 | 1022.3 |
| 20260507200108 | 55 | 250 | 1.0 | 4.0 | 0.00 | 0.00 | 0.00 | 44 | 1022.4 |
| 20260507194037 | 56 | 259 | 2.0 | 6.0 | 0.00 | 0.00 | 0.00 | 42 | 1022.4 |
| 20260507193038 | 57 | 255 | 2.0 | 6.0 | 0.00 | 0.00 | 0.00 | 45 | 1022.3 |
| 20260507190007 | 55 | 268 | 3.0 | 3.0 | 0.00 | 0.00 | 0.00 | 45 | 1022.4 |
| 20260507185009 | 56 | 323 | 3.0 | 5.0 | 0.00 | 0.00 | 0.00 | 43 | 1022.6 |
| 20260507184007 | 58 | 269 | 4.0 | 5.0 | 0.00 | 0.00 | 0.00 | 41 | 1022.5 |
| 20260507183007 | 57 | 247 | 3.0 | 5.0 | 0.00 | 0.00 | 0.00 | 39 | 1022.5 |
| 20260507182007 | 56 | 242 | 0.0 | 5.0 | 0.00 | 0.00 | 0.00 | 39 | 1022.6 |
| 20260507180007 | 56 | 207 | 0.0 | 5.0 | 0.00 | 0.00 | 0.00 | 42 | 1022.8 |
| 20260507175008 | 55 | 266 | 3.0 | 5.0 | 0.00 | 0.00 | 0.00 | 42 | 1022.8 |
| 20260507172940 | 54 | 276 | 2.0 | 3.0 | 0.00 | 0.00 | 0.00 | 44 | 1023.0 |
| 20260507171937 | 52 | 274 | 2.0 | 4.0 | 0.00 | 0.00 | 0.00 | 44 | 1023.0 |
| 20260507170937 | 52 | 302 | 3.0 | 4.0 | 0.00 | 0.00 | 0.00 | 43 | 1023.0 |
| 20260507165907 | 52 | 257 | 1.0 | 3.0 | 0.00 | 0.00 | 0.00 | 45 | 1023.1 |
| 20260507163907 | 52 | 323 | 1.0 | 5.0 | 0.00 | 0.00 | 0.00 | 43 | 1023.3 |
| 20260507162907 | 51 | 272 | 3.0 | 5.0 | 0.00 | 0.00 | 0.00 | 44 | 1023.4 |
| 20260507161907 | 51 | 264 | 2.0 | 5.0 | 0.00 | 0.00 | 0.00 | 47 | 1023.4 |
| 20260507160837 | 51 | 281 | 1.0 | 5.0 | 0.00 | 0.00 | 0.00 | 47 | 1023.4 |
| 20260507154837 | 51 | 274 | 3.0 | 6.0 | 0.00 | 0.00 | 0.00 | 46 | 1023.5 |
| 20260507152427 | 47 | 287 | 0.0 | 3.0 | 0.00 | 0.00 | 0.00 | 55 | 1023.7 |
| 20260507151836 | 47 | 287 | 0.0 | 3.0 | 0.00 | 0.00 | 0.00 | 55 | 1023.7 |
| 20260507150836 | 46 | 275 | 0.0 | 3.0 | 0.00 | 0.00 | 0.00 | 57 | 1023.7 |
| 20260507145836 | 45 | 145 | 1.0 | 3.0 | 0.00 | 0.00 | 0.00 | 63 | 1023.8 |
| 20260507144836 | 43 | 158 | 0.0 | 2.0 | 0.00 | 0.00 | 0.00 | 66 | 1023.9 |
| 20260507143837 | 42 | 140 | 0.0 | 2.0 | 0.00 | 0.00 | 0.00 | 69 | 1023.9 |
| 20260507141837 | 40 | 139 | 0.0 | 2.0 | 0.00 | 0.00 | 0.00 | 72 | 1023.8 |
| 20260507140836 | 39 | 168 | 2.0 | 2.0 | 0.00 | 0.00 | 0.00 | 77 | 1023.9 |
| 20260507135836 | 37 | 141 | 0.0 | 2.0 | 0.00 | 0.00 | 0.00 | 77 | 1024.0 |
| 20260507134836 | 37 | 160 | 1.0 | 3.0 | 0.00 | 0.00 | 0.00 | 76 | 1024.0 |
| 20260507133835 | 36 | 145 | 1.0 | 2.0 | 0.00 | 0.00 | 0.00 | 78 | 1024.0 |
| 20260507131805 | 35 | 166 | 1.0 | 2.0 | 0.00 | 0.00 | 0.00 | 78 | 1023.9 |
| 20260507130735 | 34 | 137 | 0.0 | 2.0 | 0.00 | 0.00 | 0.00 | 79 | 1023.8 |
| 20260507124706 | 34 | 126 | 1.0 | 3.0 | 0.00 | 0.00 | 0.00 | 78 | 1023.8 |
| 20260507123705 | 34 | 128 | 1.0 | 3.0 | 0.00 | 0.00 | 0.00 | 77 | 1023.8 |
| 20260507122706 | 33 | 127 | 1.0 | 3.0 | 0.00 | 0.00 | 0.00 | 77 | 1023.7 |
| 20260507121636 | 33 | 128 | 2.0 | 3.0 | 0.00 | 0.00 | 0.00 | 77 | 1023.6 |
| 20260507120605 | 32 | 148 | 2.0 | 3.0 | 0.00 | 0.00 | 0.00 | 77 | 1023.7 |
| 20260507115605 | 32 | 143 | 0.0 | 2.0 | 0.00 | 0.00 | 0.00 | 77 | 1023.8 |